Regional Weather Roundup
Issued by NWS Wakefield, VA

Home | Current Version | Previous Version | Text Only | Print | Product List | Glossary On
Versions: 1 2 3 4 5 6 7 8 9 10 11 12 13 14 15 16 17 18 19 20 21 22 23 24 25 26 27 28 29 30 31 32 33 34 35 36 37 38 39 40 41 42 43 44 45 46 47 48 49 50
000
ASUS41 KAKQ 281810
RWRAKQ

REGIONAL WEATHER ROUNDUP
NATIONAL WEATHER SERVICE WAKEFIELD VA
100 PM EST FRI NOV 28 2014

Note: "fair" indicates few or no clouds below 12,000 feet with no
significant weather and/or obstructions to visibility. * = Denotes
station may not report precipitation (e.g., rain,snow,etc.),
thunder or fog.

VAZ042-051-052>054-056-281900-
NORTHERN VIRGINIA

CITY           SKY/WX    TMP DP  RH WIND       PRES   REMARKS
WASH NATIONAL  PTSUNNY   40  18  41 NW14G20   30.30S
DULLES         PTSUNNY   36  20  52 NW17G23   30.29S
FORT BELVOIR   CLOUDY    38  18  43 NW14      30.30S
QUANTICO       CLOUDY    39  18  42 N16G22    30.31S
FREDERICKSBRG* MOSUNNY   41  19  40 NW12G20   30.28F
STAFFORD*      PTSUNNY   40  19  41 N7        30.33S
WARRENTON      PTSUNNY   40  26  58 NW9G18    30.28F
CULPEPER*      MOSUNNY   41  18  38 NW6       30.29F
MANASSAS*      NOT AVBL
LEESBURG*      CLOUDY    36  25  64 W10G18    30.29S
WINCHESTER     CLOUDY    34  18  51 W16       30.26F WCI  23
FRONT ROYAL*   CLOUDY    36  18  48 W8        30.27F
LURAY*         MOCLDY    36  19  51 SW5       30.28F
$$

VAZ048-049-060>072-079>083-281900-
CENTRAL AND SOUTH CENTRAL VIRGINIA

CITY           SKY/WX    TMP DP  RH WIND       PRES   REMARKS
RICHMOND       MOSUNNY   44  19  36 NW12      30.28F
CHESTERFIELD*  PTCLDY    43  16  33 NW13      30.29F
PETERSBURG*    SUNNY     42  16  35 W8G16     30.30F
HANOVER        MOSUNNY   41  20  43 NW13      30.30F
TAPPAHANNOCK*  MOSUNNY   42  16  34 W9        30.28F
QUINTON*       PTCLDY    38  20  48 NW6       30.29S
CHARLOTTSVILLE SUNNY     38  16  40 NW7       30.28F
GORDONSVILLE*  CLEAR     38  15  39 NW8       30.28F
ORANGE*        MOSUNNY   39  19  45 SW8G17    30.30F
LOUISA*        MOSUNNY   43  19  39 W12       30.27F
BUMPASS*       PTCLDY    39  18  43 W7        30.28F
FARMVILLE*     SUNNY     46  18  32 W3        30.28F
CREWE*         CLEAR     40  16  37 N3        30.28F
FORT PICKETT*  CLEAR     40  18  40 NW13      30.28F
CHASE CITY*    CLEAR     41  22  46 NW3       30.29F
CLARKSVILLE*   CLEAR     41  21  45 N9        30.28F
SOUTH HILL*    SUNNY     40  20  45 N7        30.34F
LAWRENCEVILLE* CLEAR     40  20  45 NW5       30.28F
$$

VAZ088>098-281900-
SOUTHEAST VIRGINIA

CITY           SKY/WX    TMP DP  RH WIND       PRES   REMARKS
NORFOLK        SUNNY     42  22  44 N12       30.26F
VIRGINIA BEACH MOSUNNY   44  24  45 NW15      30.26F
NORFOLK NAVAL  MOSUNNY   46  21  37 NW15      30.28F
WEST POINT*    SUNNY     45  18  33 NW9       30.29F
SALUDA*        FAIR      40  21  46 NW10G17   30.26F
NEWPORT NEWS   SUNNY     45  22  40 N10       30.27F
LANGLEY AFB    SUNNY     42  23  46 NW10      30.27F
FORT EUSTIS    SUNNY     42  19  39 NW8       30.26F
WILLIAMSBURG*  SUNNY     46  25  42 N6        30.29S
HR EXEC AP*    CLEAR     43  23  45 NW8       30.30F
FRANKLIN*      SUNNY     43  21  42 N8        30.29S
WAKEFIELD      MOSUNNY   43  21  41 VRB7      30.29F
$$

VAZ020-022-025-037-045-281900-
WEST CENTRAL AND SOUTHWEST VIRGINIA

CITY           SKY/WX    TMP DP  RH WIND       PRES   REMARKS
STAUNTON*      SUNNY     34  15  46 NW7       30.29F
WAYNESBORO*    CLEAR     32  15  49 SW6       30.26F
HOT SPRINGS VA PTSUNNY   22  13  67 NW8G16    30.12S
LYNCHBURG      SUNNY     38  15  39 VRB5      30.29F
DANVILLE       SUNNY     43  20  39 NW8       30.30F
SOUTH BOSTON*  CLEAR     42  20  40 NW8       30.30F
MARTINSVILLE   SUNNY     40  16  37 N6        30.31F
ROANOKE        MOSUNNY   36  15  42 SW3       30.31F
BLACKSBURG     MOSUNNY   30  21  69 NW7       30.28F
DUBLIN*        PTSUNNY   33  20  58 W6        30.28F
MARION*        CLOUDY    30  18  62 W13       30.28F WCI  20
HILLSVILLE*    MOSUNNY   27  16  63 NW7       30.24F
RICHLANDS*     CLOUDY    28  19  66 S6        30.26F
WISE*          SUNNY     32  19  59 CALM      30.27F
ABINGDON*      MOSUNNY   31  20  62 W5        30.30F
$$

MDZ021>025-VAZ099-100-281900-
SOUTHERN MARYLAND AND THE DELMARVA PENINSULA

CITY           SKY/WX    TMP DP  RH WIND       PRES   REMARKS
PATUXENT RIVER MOSUNNY   41  20  43 NW16      30.26F
BAY BRIDGE APT   N/A     39  18  41 NW13G20   30.26F
LEONARDTOWN    PTSUNNY   37  19  48 NW7       30.27S
DOVER          MOSUNNY   40  18  40 W20G28    30.20F
GEORGETOWN     MOSUNNY   41  16  36 NW13G23   30.22F
EASTON         PTSUNNY   41  21  45 NW14G24   30.29F
CAMBRIDGE      MOSUNNY   41  19  42 NW15G23   30.25S
SALISBURY      MOSUNNY   42  20  41 N15G26    30.23F
OCEAN CITY     MOSUNNY   41  19  41 NW17G26   30.22F
WALLOPS ISLAND MOSUNNY   43  21  41 N9        30.23F
ACCOMACK*      PTSUNNY   39  23  52 NW14G20   30.25F
$$

NCZ012>017-030>032-281900-
NORTH CENTRAL AND EASTERN NORTH CAROLINA

CITY           SKY/WX    TMP DP  RH WIND       PRES   REMARKS
ROANOKE RAPIDS CLEAR     41  23  48 N8        30.29F
RALEIGH        SUNNY     42  19  39 NE6       30.30F
ELIZABETH CITY PTSUNNY   47  25  42 NW7       30.28F
AHOSKIE*       SUNNY     41  21  45 NW3       30.30F
EDENTON*       SUNNY     43  25  48 N12       30.29F
CURRITUCK*     MOSUNNY   43  19  39 NW8       30.28F
KILL DEVIL HLS SUNNY     43  21  42 NW8G17    30.26F
MANTEO         SUNNY     42  22  44 N15       30.28F
CAPE HATTERAS  SUNNY     45  28  51 N8        30.28S
TARBORO*       CLEAR     45  21  39 NW9       30.31F
GOLDSBORO      SUNNY     44  20  38 VRB2      30.29F
WASHINGTON     SUNNY     43  22  42 N8        30.29F
GREENVILLE     SUNNY     43  23  45 NW3       30.30F
NEW BERN       SUNNY     46  22  38 VRB6      30.31F
WILMINGTON     SUNNY     46  22  38 N8        30.32F
$$

VAZ048-281900-
ELSEWHERE

CITY           SKY/WX    TMP DP  RH WIND       PRES   REMARKS
HARRISBURG PA  CLOUDY    34  17  50 NW12      30.24F
BALTIMORE      MOSUNNY   36  15  42 NW13G25   30.26F
ANNAPOLIS      MOSUNNY   39  17  41 NW12G23   30.26S
ANDREWS AFB    MOSUNNY   37  19  47 NW14      30.27S
PHILADELPHIA   MOSUNNY   37  17  44 NW15      30.22F
WILDWOOD NJ*   MOSUNNY   39  18  41 NW16G28   30.19S
HENDERSON NC   SUNNY     41  18  39 W6        30.29F
GREENSBORO     MOSUNNY   40  18  41 W8        30.29F
ROCKY MOUNT    SUNNY     44  22  41 W6        30.30F
$$

VAZ100-281900-
MARINE

STATION/POSITION TIME  TEMP    WIND        PRES    WAVE   SWELL
                       AIR SEA DIR/SP/G            HT/PER HT/PER
                 (UTC) (F)     (DEG/KT/KT) (MB)    (FT/S) (FT/S)
CAPE MAY NJ      1800   39 46  320/  7/ 16 1022.6S
LEWES DE         1800   39 45  320/ 23/ 27 1022.9F
15NM E FENWICK I 1800   40 54              1022.1F   6/ 6
OCEAN-CITY-INLET 1800   40 47  330/ 16/ 21 1022.7F
WACHAPREAGUE VA  1800   39 45  310/  7/ 13 1024.3S
THOMAS POINT MD  1800   37 46  300/ 18/ 20 1025.5F
GOOSES REEF MD   1800   38     330/ 17/ 21 1025.0F
COVE POINT MD    1800   37     350/ 17/ 22 1024.5S
SOLOMONS ISLAND  1800      47                N/A
BISHOPS HEAD MD  1800   39 42  320/ 15/ 17 1023.8R
PINEY POINT MD   1800          310/ 18/ 21   N/A
POTOMAC MD       1800   40     320/ 12/ 16 1023.9S
CAMBRIDGE MD     1800   38 44  310/ 12/ 16 1024.3S
LEWISETTA VA     1800   39 46  330/ 11/ 18 1024.6F
RAPPAHANNOCK LGT 1800          320/ 16/ 20 1024.8F
STINGRAY PT      1800   41     330/ 14/ 17 1024.9F
YORK RVR RNG VA  1800   40     340/ 12/ 16 1024.4F
YORKTOWN VA      1800   40 50  300/ 14/ 17 1024.7F
JAMESTOWN VA     1800   39     350/ 10/ 17   N/A
DOMINION TERM VA 1800   40     310/ 12/ 14 1025.0F
KIPTOPEKE VA     1800      53  330/ 10/ 16   N/A
CHES BAY BRIDGE  1800   40 49  320/ 14/ 19 1024.6S
CAPE HENRY VA    1800   39     330/ 15/ 18 1023.6S
CHESAPEAKE LGHT  1700   39     340/ 17/ 19 1025.5F
WILLOUBY STN VA  1800   40     340/ 11/ 14 1023.7S
S CRANEY ISL VA  1800          270/  9/ 14 1024.8F
CAPE HENRY BUOY  1800      55                N/A     5/ 6
1ST LANDING BUOY 1800   41     320/ 14/ 21 1024.5S
CAPE CHARLES BUO 1800      53                N/A     4/ 4   2/ 7
64NM E OF VA BCH 1800   43 64  340/ 17/ 23 1023.0F   7/ 8   2/ 9
DUCK PIER NC     1800   40 52  350/ 16/ 20 1024.0F
44100 DUCK FRF   1800      56                N/A     6/ 6   2/11
44056 DUCK FRF   1800      54                N/A     5/ 6   2/11
OREGON INLET NC  1800   42 50  320/ 16/ 20 1025.0F
HATTERAS NC      1800   42 52  350/ 14/ 18 1025.6S
CAPE LOOKOUT NC  1700   42      10/ 12/ 16 1026.0F
$$



USA.gov is the U.S. government's official web portal to all federal, state and local government web resources and services.